Location: Brabourne
(51.1333°N, 1.0000°E)
Time: 05:59:04
(UTC+00:00)

NOSS 3-1 (A) - Pass Details

Date: 01 November 2021
Orbit: 721 x 1491 km, 63.4° (Epoch: 22 November)

Event Time Altitude Azimuth Distance (km) Brightness Sun altitude
Rises 21:05:35 0° 296° (WNW) 3,560 7.3 -42.3°
Reaches altitude 10° 21:08:17 10° 308° (NW) 2,726 6.5 -42.6°
Enters shadow 21:11:41 25° 336° (NNW) 1,971 5.4 -43.0°
